Year,Month,Day,Hour,Minute,Value (Times are PST for windspeed in km/hr)
2023,07,17,09,23,11.30
2023,07,17,09,24,7.60
2023,07,17,09,25,10.30
2023,07,17,09,26,13.10
2023,07,17,09,27,9.60
2023,07,17,09,28,9.20
2023,07,17,09,29,12.70
2023,07,17,09,30,15.50
2023,07,17,09,31,12.20
2023,07,17,09,32,9.90
2023,07,17,09,33,9.70
2023,07,17,09,34,10.00
2023,07,17,09,35,11.60
2023,07,17,09,36,9.90
2023,07,17,09,37,12.90
2023,07,17,09,38,11.30
2023,07,17,09,39,9.00
2023,07,17,09,40,7.40
2023,07,17,09,41,5.80
2023,07,17,09,42,7.60
2023,07,17,09,43,9.00
2023,07,17,09,44,11.10
2023,07,17,09,45,12.50
2023,07,17,09,46,12.50
2023,07,17,09,47,12.10
2023,07,17,09,48,7.90
2023,07,17,09,49,9.30
2023,07,17,09,50,10.10
2023,07,17,09,51,7.50
2023,07,17,09,52,11.70
2023,07,17,09,53,10.10
2023,07,17,09,54,12.90
2023,07,17,09,55,10.50
2023,07,17,09,56,7.60
2023,07,17,09,57,12.60
2023,07,17,09,58,11.50
2023,07,17,09,59,15.00
2023,07,17,10,00,13.70
2023,07,17,10,01,11.00
2023,07,17,10,02,13.60
2023,07,17,10,03,10.90
2023,07,17,10,04,12.50
2023,07,17,10,05,13.00
2023,07,17,10,06,12.50
2023,07,17,10,07,10.60
2023,07,17,10,08,12.40
2023,07,17,10,09,12.70
2023,07,17,10,10,9.50
2023,07,17,10,11,8.30
2023,07,17,10,12,12.00
2023,07,17,10,13,9.90
2023,07,17,10,14,14.10
2023,07,17,10,15,9.00
2023,07,17,10,16,8.20
2023,07,17,10,17,14.30
2023,07,17,10,18,8.80
2023,07,17,10,19,6.70
2023,07,17,10,20,9.00
2023,07,17,10,21,7.80
2023,07,17,10,22,10.40
2023,07,17,10,23,12.30
2023,07,17,10,24,13.20
2023,07,17,10,25,10.90
2023,07,17,10,26,16.50
2023,07,17,10,27,13.10
2023,07,17,10,28,15.40
2023,07,17,10,29,15.80
2023,07,17,10,30,11.90
2023,07,17,10,31,7.60
2023,07,17,10,32,7.70
2023,07,17,10,33,9.30
2023,07,17,10,34,10.40
2023,07,17,10,35,10.80
2023,07,17,10,36,12.70
2023,07,17,10,37,13.20
2023,07,17,10,38,10.70
2023,07,17,10,39,10.20
2023,07,17,10,40,13.30
2023,07,17,10,41,7.60
2023,07,17,10,42,8.00
2023,07,17,10,43,11.50
2023,07,17,10,44,12.50
2023,07,17,10,45,12.20
2023,07,17,10,46,11.20
2023,07,17,10,47,11.50
2023,07,17,10,48,12.90
2023,07,17,10,49,12.00
2023,07,17,10,50,12.00
2023,07,17,10,51,11.10
2023,07,17,10,52,10.10
2023,07,17,10,53,9.40
2023,07,17,10,54,13.10
2023,07,17,10,55,8.60
2023,07,17,10,56,17.60
2023,07,17,10,57,12.00
2023,07,17,10,58,10.80
2023,07,17,10,59,15.30
2023,07,17,11,00,12.70
2023,07,17,11,01,13.80
2023,07,17,11,02,12.80
2023,07,17,11,03,13.10
2023,07,17,11,04,7.90
2023,07,17,11,05,7.80
2023,07,17,11,06,8.30
2023,07,17,11,07,7.60
2023,07,17,11,08,6.70
2023,07,17,11,09,6.80
2023,07,17,11,10,9.50
2023,07,17,11,11,14.00
2023,07,17,11,12,9.60
2023,07,17,11,13,9.00
2023,07,17,11,14,9.80
2023,07,17,11,15,8.60
2023,07,17,11,16,12.20
2023,07,17,11,17,11.60
2023,07,17,11,18,7.10
2023,07,17,11,19,8.80
2023,07,17,11,20,8.30
2023,07,17,11,21,16.60
2023,07,17,11,22,12.00
2023,07,17,11,23,10.50
2023,07,17,11,24,11.50
2023,07,17,11,25,9.70
2023,07,17,11,26,6.40
2023,07,17,11,27,5.50
2023,07,17,11,28,4.80
2023,07,17,11,29,10.80
2023,07,17,11,30,10.80
2023,07,17,11,31,14.00
2023,07,17,11,32,13.30
2023,07,17,11,33,12.50
2023,07,17,11,34,10.10
2023,07,17,11,35,14.10
2023,07,17,11,36,14.50
2023,07,17,11,37,15.00
2023,07,17,11,38,9.90
2023,07,17,11,39,11.70
2023,07,17,11,40,15.30
2023,07,17,11,41,8.90
2023,07,17,11,42,5.50
2023,07,17,11,43,10.30
2023,07,17,11,44,11.10
2023,07,17,11,45,10.90
2023,07,17,11,46,13.60
2023,07,17,11,47,13.00
2023,07,17,11,48,13.90
2023,07,17,11,49,13.10
2023,07,17,11,50,7.90
2023,07,17,11,51,8.40
2023,07,17,11,52,9.30
2023,07,17,11,53,16.50
2023,07,17,11,54,17.00
2023,07,17,11,55,10.50
2023,07,17,11,56,13.70
2023,07,17,11,57,11.40
2023,07,17,11,58,13.80
2023,07,17,11,59,11.50
2023,07,17,12,00,14.80
2023,07,17,12,01,15.20
2023,07,17,12,02,11.90
2023,07,17,12,03,14.60
2023,07,17,12,04,11.50
2023,07,17,12,05,11.50
2023,07,17,12,06,10.60
2023,07,17,12,07,20.00
2023,07,17,12,08,15.40
2023,07,17,12,09,8.10
2023,07,17,12,10,13.20
2023,07,17,12,11,13.20
2023,07,17,12,12,13.50
2023,07,17,12,13,10.80
2023,07,17,12,14,10.10
2023,07,17,12,15,9.30
2023,07,17,12,16,7.60
2023,07,17,12,17,11.10
2023,07,17,12,18,17.30
2023,07,17,12,19,9.30
2023,07,17,12,20,9.50
2023,07,17,12,21,10.30
2023,07,17,12,22,13.80
2023,07,17,12,23,12.10
2023,07,17,12,24,17.40
2023,07,17,12,25,12.00
2023,07,17,12,26,13.90
2023,07,17,12,27,9.90
2023,07,17,12,28,16.40
2023,07,17,12,29,13.20
2023,07,17,12,30,11.30
2023,07,17,12,31,6.10
2023,07,17,12,32,7.20
2023,07,17,12,33,10.10
2023,07,17,12,34,12.40
2023,07,17,12,35,7.50
2023,07,17,12,36,8.60
2023,07,17,12,37,12.90
2023,07,17,12,38,8.90
2023,07,17,12,39,10.10
2023,07,17,12,40,4.20
2023,07,17,12,41,7.10
2023,07,17,12,42,9.50
2023,07,17,12,43,11.10
2023,07,17,12,44,12.10
2023,07,17,12,45,14.20
2023,07,17,12,46,13.00
2023,07,17,12,47,15.40
2023,07,17,12,48,13.40
2023,07,17,12,49,10.70
2023,07,17,12,50,13.10
2023,07,17,12,51,13.10
2023,07,17,12,52,11.20
2023,07,17,12,53,13.00
2023,07,17,12,54,14.00
2023,07,17,12,55,15.60
2023,07,17,12,56,14.60
2023,07,17,12,57,15.40
2023,07,17,12,58,15.30
2023,07,17,12,59,15.00
2023,07,17,13,00,14.80
2023,07,17,13,01,18.40
2023,07,17,13,02,15.60
2023,07,17,13,03,16.40
2023,07,17,13,04,12.70
2023,07,17,13,05,15.10
2023,07,17,13,06,15.70
2023,07,17,13,07,12.40
2023,07,17,13,08,14.60
2023,07,17,13,09,15.00
2023,07,17,13,10,14.60
2023,07,17,13,11,11.80
2023,07,17,13,12,19.10
2023,07,17,13,13,18.00
2023,07,17,13,14,7.60
2023,07,17,13,15,12.30
2023,07,17,13,16,14.70
2023,07,17,13,17,14.20
2023,07,17,13,18,14.50
2023,07,17,13,19,16.30
2023,07,17,13,20,11.60
2023,07,17,13,21,18.10
2023,07,17,13,22,9.40
2023,07,17,13,23,8.50
2023,07,17,13,24,12.10
2023,07,17,13,25,11.30
2023,07,17,13,26,10.90
2023,07,17,13,27,10.60
2023,07,17,13,28,12.00
2023,07,17,13,29,16.10
2023,07,17,13,30,13.80
2023,07,17,13,31,16.20
2023,07,17,13,32,17.10
2023,07,17,13,33,16.50
2023,07,17,13,34,11.00
2023,07,17,13,35,18.20
2023,07,17,13,36,14.30
2023,07,17,13,37,17.10
2023,07,17,13,38,13.00
2023,07,17,13,39,10.20
2023,07,17,13,40,9.10
2023,07,17,13,41,14.00
2023,07,17,13,42,11.90
2023,07,17,13,43,14.30
2023,07,17,13,44,9.70
2023,07,17,13,45,15.40
2023,07,17,13,46,15.60
2023,07,17,13,47,16.50
2023,07,17,13,48,12.70
2023,07,17,13,49,16.20
2023,07,17,13,50,16.20
2023,07,17,13,51,11.10
2023,07,17,13,52,10.40
2023,07,17,13,53,9.20
2023,07,17,13,54,8.40
2023,07,17,13,55,8.00
2023,07,17,13,56,14.80
2023,07,17,13,57,11.20
2023,07,17,13,58,11.60
2023,07,17,13,59,9.10
2023,07,17,14,00,10.00
2023,07,17,14,01,12.90
2023,07,17,14,02,7.50
2023,07,17,14,03,10.10
2023,07,17,14,04,9.50
2023,07,17,14,05,12.90
2023,07,17,14,06,17.80
2023,07,17,14,07,13.10
2023,07,17,14,08,13.80
2023,07,17,14,09,7.10
2023,07,17,14,10,10.80
2023,07,17,14,11,8.90
2023,07,17,14,12,8.00
2023,07,17,14,13,10.30
2023,07,17,14,14,11.40
2023,07,17,14,15,9.60
2023,07,17,14,16,6.00
2023,07,17,14,17,7.10
2023,07,17,14,18,11.20
2023,07,17,14,19,9.20
2023,07,17,14,20,14.20
2023,07,17,14,21,10.10
2023,07,17,14,22,11.60
2023,07,17,14,23,14.30
2023,07,17,14,24,9.90
2023,07,17,14,25,7.00
2023,07,17,14,26,13.80
2023,07,17,14,27,11.50
2023,07,17,14,28,9.10
2023,07,17,14,29,7.90
2023,07,17,14,30,12.00
2023,07,17,14,31,13.70
2023,07,17,14,32,14.70
2023,07,17,14,33,14.40
2023,07,17,14,34,10.30
2023,07,17,14,35,18.10
2023,07,17,14,36,13.60
2023,07,17,14,37,14.70
2023,07,17,14,38,11.40
2023,07,17,14,39,18.90
2023,07,17,14,40,17.30
2023,07,17,14,41,16.30
2023,07,17,14,42,12.00
2023,07,17,14,43,12.20
2023,07,17,14,44,11.50
2023,07,17,14,45,7.10
2023,07,17,14,46,10.60
2023,07,17,14,47,10.90
2023,07,17,14,48,11.10
2023,07,17,14,49,9.40
2023,07,17,14,50,9.80
2023,07,17,14,51,6.80
2023,07,17,14,52,7.70
2023,07,17,14,53,8.90
2023,07,17,14,54,15.60
2023,07,17,14,55,15.30
2023,07,17,14,56,16.70
2023,07,17,14,57,13.60
2023,07,17,14,58,11.50
2023,07,17,14,59,17.60
2023,07,17,15,00,18.60
2023,07,17,15,01,16.80
2023,07,17,15,02,16.10
2023,07,17,15,03,14.30
2023,07,17,15,04,11.10
2023,07,17,15,05,12.10
2023,07,17,15,06,9.20
2023,07,17,15,07,12.20
2023,07,17,15,08,12.40
2023,07,17,15,09,12.00
2023,07,17,15,10,13.00
2023,07,17,15,11,11.90
2023,07,17,15,12,14.60
2023,07,17,15,13,10.10
2023,07,17,15,14,17.50
2023,07,17,15,15,14.80
2023,07,17,15,16,9.40
2023,07,17,15,17,14.70
2023,07,17,15,18,10.50
2023,07,17,15,19,11.90
2023,07,17,15,20,15.90
2023,07,17,15,21,17.00
2023,07,17,15,22,14.50
2023,07,17,15,23,12.00
2023,07,17,15,24,15.30
2023,07,17,15,25,12.30
2023,07,17,15,26,8.40
2023,07,17,15,27,12.30
2023,07,17,15,28,14.40
2023,07,17,15,29,21.10
2023,07,17,15,30,14.10
2023,07,17,15,31,12.40
2023,07,17,15,32,11.30
2023,07,17,15,33,18.90
2023,07,17,15,34,17.90
2023,07,17,15,35,7.60
2023,07,17,15,36,8.60
2023,07,17,15,37,10.10
2023,07,17,15,38,10.50
2023,07,17,15,39,5.30
2023,07,17,15,40,11.60
2023,07,17,15,41,14.00
2023,07,17,15,42,14.90
2023,07,17,15,43,13.90
2023,07,17,15,44,11.20
2023,07,17,15,45,18.80
2023,07,17,15,46,14.30
2023,07,17,15,47,8.20
2023,07,17,15,48,9.90
2023,07,17,15,49,8.00
2023,07,17,15,50,9.10
2023,07,17,15,51,5.00
2023,07,17,15,52,4.70
2023,07,17,15,53,13.30
2023,07,17,15,54,11.80
2023,07,17,15,55,7.70
2023,07,17,15,56,8.20
2023,07,17,15,57,9.00
2023,07,17,15,58,11.20
2023,07,17,15,59,13.70
2023,07,17,16,00,13.10
2023,07,17,16,01,15.20
2023,07,17,16,02,9.60
2023,07,17,16,03,11.80
2023,07,17,16,04,13.80
2023,07,17,16,05,9.30
2023,07,17,16,06,8.20
2023,07,17,16,07,5.80
2023,07,17,16,08,10.60
2023,07,17,16,09,15.60
2023,07,17,16,10,10.60
2023,07,17,16,11,8.60
2023,07,17,16,12,12.40
2023,07,17,16,13,6.40
2023,07,17,16,14,12.50
2023,07,17,16,15,7.10
2023,07,17,16,16,7.60
2023,07,17,16,17,7.30
2023,07,17,16,18,12.30
2023,07,17,16,19,11.30
2023,07,17,16,20,7.30
2023,07,17,16,21,8.50
2023,07,17,16,22,11.50
2023,07,17,16,23,10.80
2023,07,17,16,24,17.70
2023,07,17,16,25,14.90
2023,07,17,16,26,13.00
2023,07,17,16,27,11.70
2023,07,17,16,28,12.30
2023,07,17,16,29,12.10
2023,07,17,16,30,11.90
2023,07,17,16,31,12.80
2023,07,17,16,32,11.00
2023,07,17,16,33,9.00
2023,07,17,16,34,17.20
2023,07,17,16,35,12.30
2023,07,17,16,36,18.70
2023,07,17,16,37,10.60
2023,07,17,16,38,11.30
2023,07,17,16,39,9.20
2023,07,17,16,40,11.30
2023,07,17,16,41,10.10
2023,07,17,16,42,9.70
2023,07,17,16,43,10.70
2023,07,17,16,44,16.60
2023,07,17,16,45,15.20
2023,07,17,16,46,10.70
2023,07,17,16,47,8.60
2023,07,17,16,48,15.90
2023,07,17,16,49,11.90
2023,07,17,16,50,13.40
2023,07,17,16,51,10.80
2023,07,17,16,52,14.10
2023,07,17,16,53,9.70
2023,07,17,16,54,13.50
2023,07,17,16,55,15.10
2023,07,17,16,56,14.60
2023,07,17,16,57,16.00
2023,07,17,16,58,16.40
2023,07,17,16,59,13.60
2023,07,17,17,00,10.90
2023,07,17,17,01,11.70
2023,07,17,17,02,7.80
2023,07,17,17,03,5.70
2023,07,17,17,04,8.00
2023,07,17,17,05,9.00
2023,07,17,17,06,7.10
2023,07,17,17,07,8.10
2023,07,17,17,08,8.10
2023,07,17,17,09,13.90
2023,07,17,17,10,10.70
2023,07,17,17,11,6.20
2023,07,17,17,12,7.90
2023,07,17,17,13,6.10
2023,07,17,17,14,8.10
2023,07,17,17,15,12.90
2023,07,17,17,16,14.00
2023,07,17,17,17,15.00
2023,07,17,17,18,11.40
2023,07,17,17,19,9.80
2023,07,17,17,20,11.80
2023,07,17,17,21,10.50
2023,07,17,17,22,13.80
2023,07,17,17,23,12.90
2023,07,17,17,24,12.20
2023,07,17,17,25,13.90
2023,07,17,17,26,8.10
2023,07,17,17,27,10.20
2023,07,17,17,28,13.20
2023,07,17,17,29,9.80
2023,07,17,17,30,11.70
2023,07,17,17,31,6.50
2023,07,17,17,32,8.70
2023,07,17,17,33,7.80
2023,07,17,17,34,12.10
2023,07,17,17,35,12.70
2023,07,17,17,36,7.30
2023,07,17,17,37,8.00
2023,07,17,17,38,8.50
2023,07,17,17,39,9.80
2023,07,17,17,40,5.80
2023,07,17,17,41,7.90
2023,07,17,17,42,10.70
2023,07,17,17,43,9.70
2023,07,17,17,44,6.40
2023,07,17,17,45,4.30
2023,07,17,17,46,1.80
2023,07,17,17,47,3.10
2023,07,17,17,48,5.30
2023,07,17,17,49,8.30
2023,07,17,17,50,6.80
2023,07,17,17,51,8.50
2023,07,17,17,52,7.30
2023,07,17,17,53,11.10
2023,07,17,17,54,8.90
2023,07,17,17,55,3.10
2023,07,17,17,56,3.40
2023,07,17,17,57,6.90
2023,07,17,17,58,5.70
2023,07,17,17,59,5.20
2023,07,17,18,00,8.70
2023,07,17,18,01,9.50
2023,07,17,18,02,8.30
2023,07,17,18,03,11.30
2023,07,17,18,04,14.40
2023,07,17,18,05,13.80
2023,07,17,18,06,18.90
2023,07,17,18,07,8.40
2023,07,17,18,08,2.00
2023,07,17,18,09,5.10
2023,07,17,18,10,3.70
2023,07,17,18,11,1.50
2023,07,17,18,12,3.70
2023,07,17,18,13,7.00
2023,07,17,18,14,3.20
2023,07,17,18,15,5.50
2023,07,17,18,16,3.70
2023,07,17,18,17,4.10
2023,07,17,18,18,2.20
2023,07,17,18,19,1.30
2023,07,17,18,20,2.60
2023,07,17,18,21,2.70
2023,07,17,18,22,5.00
2023,07,17,18,23,3.40
2023,07,17,18,24,4.00
2023,07,17,18,25,5.60
2023,07,17,18,26,3.70
2023,07,17,18,27,6.60
2023,07,17,18,28,5.80
2023,07,17,18,29,5.00
2023,07,17,18,30,5.00
2023,07,17,18,31,6.90
2023,07,17,18,32,4.70
2023,07,17,18,33,6.40
2023,07,17,18,34,3.60
2023,07,17,18,35,3.40
2023,07,17,18,36,5.00
2023,07,17,18,37,2.70
2023,07,17,18,38,0.90
2023,07,17,18,39,1.60
2023,07,17,18,40,2.40
2023,07,17,18,41,0.70
2023,07,17,18,42,1.50
2023,07,17,18,43,3.20
2023,07,17,18,44,0.70
2023,07,17,18,45,3.10
2023,07,17,18,46,4.50
2023,07,17,18,47,3.70
2023,07,17,18,48,3.10
2023,07,17,18,49,1.20
2023,07,17,18,50,2.80
2023,07,17,18,51,2.40
2023,07,17,18,52,6.70
2023,07,17,18,53,6.60
2023,07,17,18,54,4.20
2023,07,17,18,55,5.00
2023,07,17,18,56,9.40
2023,07,17,18,57,3.60
2023,07,17,18,58,7.00
2023,07,17,18,59,5.60
2023,07,17,19,00,2.20
2023,07,17,19,01,6.50
2023,07,17,19,02,8.80
2023,07,17,19,03,5.70
2023,07,17,19,04,5.40
2023,07,17,19,05,6.70
2023,07,17,19,06,7.50
2023,07,17,19,07,7.40
2023,07,17,19,08,11.60
2023,07,17,19,09,9.20
2023,07,17,19,10,7.80
2023,07,17,19,11,4.20
2023,07,17,19,12,2.80
2023,07,17,19,13,0.60
2023,07,17,19,14,3.70
2023,07,17,19,15,3.80
2023,07,17,19,16,2.10
2023,07,17,19,17,1.90
2023,07,17,19,18,3.30
2023,07,17,19,19,5.70
2023,07,17,19,20,5.10
2023,07,17,19,21,6.20
2023,07,17,19,22,5.00
2023,07,17,19,23,7.90
2023,07,17,19,24,4.80
2023,07,17,19,25,8.30
2023,07,17,19,26,3.60
2023,07,17,19,27,6.50
2023,07,17,19,28,5.90
2023,07,17,19,29,3.50
2023,07,17,19,30,9.70
2023,07,17,19,31,6.20
2023,07,17,19,32,7.60
2023,07,17,19,33,4.60
2023,07,17,19,34,6.10
2023,07,17,19,35,5.70
2023,07,17,19,36,5.20
2023,07,17,19,37,4.00
2023,07,17,19,38,5.70
2023,07,17,19,39,7.70
2023,07,17,19,40,6.10
2023,07,17,19,41,7.40
2023,07,17,19,42,4.50
2023,07,17,19,43,6.20
2023,07,17,19,44,5.30
2023,07,17,19,45,5.50
2023,07,17,19,46,4.50
2023,07,17,19,47,5.90
2023,07,17,19,48,8.00
2023,07,17,19,49,7.80
2023,07,17,19,50,9.70
2023,07,17,19,51,8.90
2023,07,17,19,52,8.10
2023,07,17,19,53,6.70
2023,07,17,19,54,6.40
2023,07,17,19,55,5.20
2023,07,17,19,56,6.20
2023,07,17,19,57,8.00
2023,07,17,19,58,6.00
2023,07,17,19,59,8.30
2023,07,17,20,00,7.30
2023,07,17,20,01,10.40
2023,07,17,20,02,9.60
2023,07,17,20,03,7.30
2023,07,17,20,04,5.10
2023,07,17,20,05,7.30
2023,07,17,20,06,3.70
2023,07,17,20,07,7.50
2023,07,17,20,08,7.40
2023,07,17,20,09,8.10
2023,07,17,20,10,8.60
2023,07,17,20,11,5.40
2023,07,17,20,12,6.90
2023,07,17,20,13,7.40
2023,07,17,20,14,7.00
2023,07,17,20,15,7.70
2023,07,17,20,16,8.70
2023,07,17,20,17,6.40
2023,07,17,20,18,9.20
2023,07,17,20,19,8.00
2023,07,17,20,20,6.30
2023,07,17,20,21,6.90
2023,07,17,20,22,4.50
2023,07,17,20,23,8.20
2023,07,17,20,24,9.90
2023,07,17,20,25,7.80
2023,07,17,20,26,8.50
2023,07,17,20,27,5.20
2023,07,17,20,28,6.30
2023,07,17,20,29,7.90
2023,07,17,20,30,9.10
2023,07,17,20,31,8.40
2023,07,17,20,32,6.00
2023,07,17,20,33,4.60
2023,07,17,20,34,6.20
2023,07,17,20,35,8.10
2023,07,17,20,36,6.60
2023,07,17,20,37,6.20
2023,07,17,20,38,8.00
2023,07,17,20,39,7.90
2023,07,17,20,40,6.20
2023,07,17,20,41,6.90
2023,07,17,20,42,8.30
2023,07,17,20,43,6.10
2023,07,17,20,44,7.30
2023,07,17,20,45,5.00
2023,07,17,20,46,3.60
2023,07,17,20,47,4.10
2023,07,17,20,48,5.10
2023,07,17,20,49,4.40
2023,07,17,20,50,5.50
2023,07,17,20,51,5.00
2023,07,17,20,52,7.10
2023,07,17,20,53,6.40
2023,07,17,20,54,6.40
2023,07,17,20,55,6.40
2023,07,17,20,56,6.40
2023,07,17,20,57,6.40
2023,07,17,20,58,6.40
2023,07,17,20,59,6.40
2023,07,17,21,00,6.40
2023,07,17,21,01,6.40
2023,07,17,21,02,6.40
